EHI
0 0 0 0 0 0 0 0 0 0 0 0 0 0 0 0 0 0 0 0 1 3 5 10 18 19 14 8 6 8 13 16 15 13 9 4 2 1 0 0 0 0 0 0 0 0 0 0 0
0 0 0 0 0 0 0 0 0 0 0 0 0 0 0 0 0 0 0 0 2 6 7 12 23 27 22 15 11 10 11 11 10 8 5 2 1 0 0 0 0 0 0 0 0 0 0 0 0
0 0 0 0 0 0 0 0 0 0 0 0 0 0 0 0 0 0 0 1 5 9 10 20 37 42 36 30 24 18 13 10 8 5 3 1 0 0 0 0 0 0 0 0 0 0 0 0 0
0 0 0 0 0 0 0 0 0 0 0 0 0 0 0 0 0 0 0 4 12 16 18 33 55 60 52 46 41 34 25 17 11 7 4 2 1 1 0 0 0 0 0 0 0 0 0 0 0
0 0 0 0 0 0 0 0 0 0 0 0 0 0 0 0 0 0 1 8 21 29 33 50 71 75 68 61 57 52 41 27 16 10 6 3 2 1 0 0 0 0 0 0 0 0 0 0 0
0 0 0 0 0 0 0 0 0 0 0 0 0 0 0 0 0 0 2 11 29 45 54 64 75 79 76 71 67 62 50 33 19 11 5 3 2 1 0 0 0 0 0 0 0 0 0 0 0
0 0 0 0 0 0 0 0 0 0 0 0 0 0 0 0 0 0 4 16 37 59 71 75 76 77 77 73 68 60 47 31 19 10 6 4 2 1 0 0 0 0 0 0 0 0 0 0 0
0 0 0 0 0 0 0 0 0 0 0 0 0 0 1 2 4 5 11 24 43 62 76 80 78 75 72 66 59 49 36 23 15 11 8 4 2 1 1 1 0 0 0 0 0 0 0 0 0
0 0 0 0 0 0 0 0 0 0 0 0 0 1 6 14 18 19 24 35 47 57 67 72 72 69 63 55 46 36 26 19 15 13 9 5 1 1 1 1 0 0 0 0 0 0 0 0 0
0 0 0 0 0 0 0 0 0 0 0 0 1 5 19 36 41 38 38 43 48 51 52 54 55 56 53 45 36 28 21 17 15 14 11 6 2 0 1 1 0 0 0 0 0 0 0 0 0
0 0 0 0 0 0 0 0 0 0 0 0 3 14 36 55 60 53 46 44 46 46 43 40 41 41 39 34 27 21 17 14 12 12 12 9 5 2 0 0 0 0 0 0 0 0 1 1 1
0 0 0 0 0 0 0 0 0 0 0 1 7 24 47 61 64 60 52 44 43 44 40 34 32 31 27 22 19 16 15 14 12 10 11 12 10 6 2 1 1 0 0 0 0 1 1 2 2
0 0 0 0 0 0 0 0 0 0 1 5 15 33 51 58 57 56 52 46 44 42 34 28 27 25 21 18 15 15 15 15 14 11 11 12 12 8 3 2 1 0 0 0 0 1 1 1 1
0 0 0 0 0 0 0 1 2 2 6 13 25 39 52 56 51 46 41 39 40 36 28 23 22 19 17 15 13 11 10 11 12 10 9 10 10 7 4 2 1 0 0 0 0 1 0 0 0
0 0 0 0 0 0 1 5 6 6 12 24 33 41 48 51 46 36 28 26 28 28 24 20 16 14 13 11 8 6 5 6 8 8 8 9 7 5 4 2 0 0 0 0 0 1 0 0 0
0 0 0 0 0 0 4 8 9 9 18 30 36 38 39 39 36 27 19 16 16 18 16 14 11 9 9 7 5 3 4 4 5 7 8 8 7 5 3 1 0 0 0 0 0 0 0 0 0
0 0 0 0 0 1 6 11 10 9 16 25 29 29 29 27 22 16 10 7 6 7 8 7 5 5 5 6 5 5 6 6 5 4 5 5 5 3 1 0 0 0 0 0 0 0 0 0 0
0 0 0 0 0 2 6 9 8 7 9 13 16 18 20 17 10 5 4 3 2 2 3 3 2 1 2 4 6 7 7 7 5 2 1 1 1 1 0 0 0 0 0 0 0 0 0 0 0
0 0 0 0 0 1 2 4 5 5 4 6 7 10 12 9 4 1 1 1 1 0 1 2 1 0 0 2 4 6 5 4 3 1 0 0 0 0 0 0 0 0 0 0 0 0 0 0 0
0 0 0 0 0 0 0 1 3 4 3 3 4 5 5 4 1 0 0 0 0 0 1 2 1 0 0 0 1 2 2 1 1 0 0 0 0 0 0 0 0 0 0 0 0 0 0 0 0
0 0 0 0 0 0 0 0 2 2 2 2 2 1 1 1 0 0 0 0 0 0 0 1 1 0 0 0 0 0 0 0 0 0 0 0 0 0 0 0 0 0 0 0 0 1 0 0 0
0 0 0 0 0 0 0 0 0 1 1 1 1 1 0 0 0 0 0 0 0 0 0 0 0 0 0 0 0 0 0 0 0 0 0 0 0 0 0 0 0 0 0 0 0 0 0 0 0
0 0 0 0 0 0 0 0 0 0 0 0 0 1 0 0 0 0 0 0 0 0 0 0 0 0 0 0 0 0 0 0 0 0 0 0 0 0 0 0 0 0 0 0 0 0 0 0 0
0 0 0 0 0 0 0 0 0 0 0 0 0 0 0 0 0 0 0 0 0 0 0 0 0 0 0 0 0 0 0 0 0 0 0 0 0 0 0 0 0 0 0 0 0 0 0 0 0
0 0 0 0 0 0 0 0 0 0 0 0 0 0 0 0 0 0 0 0 0 0 0 0 0 0 0 0 0 0 0 0 0 0 0 0 0 0 0 0 0 0 0 0 0 0 0 0 0
0 0 0 0 0 0 0 0 0 0 0 0 0 0 0 0 0 0 0 0 0 0 0 0 0 0 0 0 0 0 0 0 0 0 0 0 0 0 0 0 0 0 0 0 0 0 0 0 0
0 0 0 0 0 0 0 0 0 0 0 0 0 0 0 0 0 0 0 0 0 0 0 0 0 0 0 0 0 0 0 0 0 0 0 0 0 0 0 0 0 0 0 0 0 0 0 0 0
0 0 0 0 0 0 0 0 0 0 0 0 0 0 0 0 0 0 0 0 0 0 0 0 0 0 0 0 0 0 0 0 0 0 0 0 0 0 0 0 0 0 0 0 0 0 0 0 0
0 0 0 0 0 0 0 0 0 0 0 0 0 0 0 0 0 0 0 0 0 0 0 0 0 0 0 0 0 0 0 0 0 0 0 0 0 0 0 0 0 0 0 0 0 0 0 0 0
0 0 0 0 0 0 0 0 0 0 0 0 0 0 0 0 0 0 0 0 0 0 0 0 0 0 0 0 0 0 0 0 0 0 0 0 0 0 0 0 0 0 0 0 0 0 0 0 0
Wind_Speed
13 10 4 2 1 1 3 4 3 3 3 1 3 3 5 5 5 3 1 10 15 14 13 15 18 18 17 17 16 16 15 15 15 14 14 14 14 13 13 12 12 11 10 9 8 8 7 7 7
8 7 2 2 1 2 4 3 2 2 0 2 3 4 4 2 2 3 4 7 14 13 10 12 18 18 17 17 16 15 15 14 14 13 13 13 13 12 12 12 11 10 9 9 8 8 7 7 7
7 3 3 2 0 2 4 3 1 1 1 2 3 3 3 2 4 5 6 11 12 11 9 12 20 18 17 16 15 15 14 14 13 13 12 12 12 12 12 11 11 10 9 9 8 8 8 7 7
5 2 3 2 3 5 5 4 1 1 1 3 3 3 2 1 6 6 12 14 13 10 8 11 20 18 17 16 15 14 14 13 13 12 12 12 11 11 11 11 10 10 10 9 9 8 8 8 8
3 3 3 2 5 6 5 4 1 2 1 2 3 2 1 3 7 12 14 15 14 10 8 10 18 18 17 16 15 14 14 13 12 12 12 12 11 11 11 11 11 10 10 10 9 9 9 9 9
4 4 3 3 6 6 5 3 0 1 2 2 4 3 0 3 7 11 13 12 12 12 9 9 17 17 17 16 15 14 13 12 12 12 12 11 11 11 11 11 11 11 11 11 11 11 10 10 10
4 4 3 3 4 6 4 2 1 2 2 3 6 4 1 3 4 8 10 11 10 10 8 6 8 11 14 14 13 12 12 12 12 12 12 12 12 12 12 12 12 12 12 12 12 12 12 12 11
5 4 1 3 4 6 4 2 2 2 2 2 5 6 4 6 9 9 9 9 9 8 8 6 6 6 6 6 10 10 10 11 11 12 12 13 13 13 13 12 12 13 13 13 13 14 13 13 12
4 4 3 4 4 6 4 2 2 1 2 2 2 4 5 15 15 11 9 8 8 9 7 6 6 6 5 4 5 7 8 9 10 10 13 12 6 6 7 11 13 15 15 15 15 16 15 14 13
5 4 7 6 4 5 6 4 3 1 1 2 1 2 10 16 15 13 12 12 11 10 9 6 7 6 5 4 3 2 3 3 4 4 5 4 4 5 8 9 15 16 17 17 17 17 15 12 7
5 6 5 5 5 5 4 3 2 4 5 7 7 7 12 13 12 10 10 10 9 9 8 7 6 6 5 2 1 1 1 1 3 4 5 4 4 4 6 4 7 9 12 9 10 10 7 7 6
3 6 5 5 3 3 3 2 2 5 8 3 2 8 10 12 11 10 9 9 9 9 8 7 6 5 4 3 1 1 2 3 3 5 6 5 4 5 5 5 5 5 4 5 5 4 6 7 8
3 4 4 6 8 5 3 2 1 3 4 5 10 11 10 9 8 7 9 10 10 9 8 7 6 5 3 3 2 2 2 3 4 4 5 6 5 5 5 5 5 5 4 5 5 5 6 6 6
3 5 8 8 6 3 2 2 3 5 4 8 12 11 10 9 9 8 8 9 9 9 8 7 6 5 3 3 2 2 2 3 3 3 5 6 5 5 5 5 5 5 5 5 4 4 4 4 3
2 5 8 4 4 2 3 8 9 10 6 11 12 13 14 12 11 9 7 7 7 7 6 5 4 2 2 2 3 3 2 2 3 3 4 5 5 5 5 4 4 4 4 4 3 3 2 2 2
3 3 5 7 9 5 6 5 11 11 10 13 13 13 13 12 11 9 7 5 4 4 3 2 2 1 2 3 3 3 3 2 3 3 3 5 5 4 4 4 4 4 3 3 3 2 2 2 2
5 3 4 7 11 6 9 7 9 10 12 13 12 11 11 10 9 7 6 6 5 3 2 1 1 0 2 3 3 4 3 3 2 2 3 3 3 4 4 4 4 4 3 3 3 2 2 2 2
2 2 3 2 5 11 12 9 9 10 11 12 10 10 10 9 7 6 5 5 5 3 2 1 1 1 1 2 3 3 3 2 1 2 2 2 2 4 4 4 5 4 3 3 2 3 2 2 2
2 1 2 1 3 8 10 10 9 9 10 10 9 8 8 7 6 6 6 4 4 3 2 2 2 2 2 1 1 2 1 2 2 2 2 2 2 3 4 4 4 4 4 4 4 3 3 2 1
3 1 1 2 5 6 7 9 7 9 8 7 7 7 6 5 5 6 5 5 5 4 3 3 3 3 3 1 1 1 1 1 1 2 2 2 2 3 5 5 4 4 4 4 4 3 3 2 2
2 3 3 3 3 4 5 4 4 5 5 6 6 5 5 5 5 5 5 4 3 3 2 2 2 2 2 2 1 1 1 1 2 2 3 3 3 4 3 3 4 4 4 4 5 5 5 3 2
1 2 2 4 4 1 1 1 1 1 3 4 4 3 3 3 2 2 3 2 2 1 0 2 1 1 1 2 2 2 1 1 2 2 2 3 3 3 2 3 4 4 4 4 5 5 4 4 3
1 3 4 3 4 3 4 3 3 1 1 2 2 1 1 2 1 2 3 3 3 2 1 0 0 0 0 1 2 2 1 0 1 1 2 3 3 3 3 2 2 4 4 5 5 4 5 4 4
2 5 5 5 5 3 2 1 3 3 3 3 3 2 2 3 3 3 4 4 4 4 3 2 2 2 2 1 2 3 3 2 1 1 1 2 2 2 3 3 2 2 2 4 5 5 6 6 5
6 6 5 6 5 3 2 1 4 2 2 3 3 3 3 3 3 4 5 5 6 6 5 4 4 4 4 3 3 3 4 3 3 2 1 1 1 1 2 2 2 2 2 3 3 4 6 6 6
2 6 6 3 3 4 2 1 3 1 1 1 1 1 3 4 4 6 6 7 7 7 7 6 6 6 5 5 5 4 5 3 3 4 3 3 3 3 3 2 2 3 3 3 2 3 4 5 6
3 3 3 6 1 1 3 3 4 1 2 2 1 1 3 4 5 6 7 7 7 7 7 7 7 7 7 7 6 6 6 5 5 5 4 4 4 4 4 3 3 3 3 3 2 2 3 4 5
5 5 4 4 2 2 4 3 4 6 5 3 2 2 3 4 5 6 6 6 6 6 6 7 7 8 8 8 7 7 7 7 6 5 6 6 6 5 5 5 4 4 3 3 3 3 3 4 4
5 5 5 4 3 3 2 3 3 4 3 2 2 3 4 5 5 6 5 5 6 6 7 7 8 8 9 9 9 8 8 8 7 7 8 7 7 6 7 6 6 5 5 4 3 4 4 4 4
3 3 3 3 1 2 1 4 3 2 2 2 2 4 5 5 6 6 6 6 6 7 8 8 8 9 10 10 9 9 9 8 8 9 10 9 8 8 8 7 6 7 6 5 5 5 4 5 5
Wind_Direction
144 137 134 139 110 35 282 264 260 318 346 2 132 149 149 155 178 214 23 137 136 145 155 163 160 157 154 150 147 145 143 142 143 145 148 151 156 160 163 166 168 170 170 167 165 162 159 156 152
141 147 149 114 87 12 301 280 327 330 95 60 68 77 81 96 75 105 118 134 137 142 149 158 160 158 155 152 149 148 147 147 148 151 154 157 162 166 169 171 173 174 174 173 173 171 167 165 162
151 172 118 97 130 214 275 286 282 71 96 48 59 59 99 169 143 152 147 136 132 138 144 161 160 159 156 153 152 151 152 153 155 158 161 165 169 173 176 177 178 179 180 181 182 181 177 174 172
146 90 66 60 270 245 243 268 234 104 66 62 95 73 69 85 154 150 139 139 137 139 143 162 161 159 157 155 155 156 158 161 164 167 170 174 178 181 184 186 188 190 190 192 194 193 189 187 186
87 92 55 340 277 268 259 265 219 134 112 86 114 115 43 25 111 132 141 145 144 142 146 162 161 161 159 159 160 162 166 170 174 178 182 185 188 192 195 197 199 202 203 203 204 205 203 201 200
78 77 80 282 277 281 283 279 228 129 134 129 120 119 258 108 131 145 145 144 145 146 146 157 163 162 162 163 165 169 173 178 184 189 194 198 201 203 206 208 210 212 214 215 214 214 213 212 212
127 123 191 243 278 293 288 319 189 161 174 173 140 128 223 155 150 139 135 133 136 143 142 145 154 161 164 166 170 174 180 187 194 199 204 209 212 215 217 219 221 222 224 226 226 225 224 222 222
147 122 216 259 264 274 287 331 291 192 209 157 139 153 210 171 134 122 116 119 128 137 140 136 135 135 143 159 175 182 191 199 206 211 214 218 221 223 226 226 229 232 233 235 235 235 233 232 230
113 88 227 238 236 264 278 289 283 238 152 167 175 179 169 132 131 126 121 125 139 150 148 138 128 124 123 133 170 186 203 211 216 221 225 225 226 231 236 236 235 239 241 242 242 240 239 237 236
111 161 228 229 222 260 284 254 240 203 237 246 234 114 123 131 140 146 150 155 159 160 158 146 136 124 122 149 157 175 198 212 218 220 231 229 218 225 238 245 246 246 248 249 248 246 244 242 234
162 201 239 259 255 257 268 264 195 164 237 231 210 161 134 134 142 152 158 156 155 144 146 148 143 132 135 146 155 155 192 225 229 226 226 229 226 229 238 238 253 255 257 255 254 249 237 229 224
218 244 246 269 280 287 252 241 187 192 230 235 145 120 129 137 152 156 147 137 132 135 142 140 143 141 149 145 154 171 198 212 220 225 224 221 225 227 229 233 234 237 244 250 248 238 231 229 226
248 265 271 265 280 254 237 234 222 278 268 57 85 99 114 128 127 117 123 127 131 136 139 145 144 149 156 153 190 211 219 229 227 220 224 222 227 233 235 236 233 233 233 238 241 236 232 230 229
262 276 282 278 273 250 160 19 33 325 7 74 83 87 89 90 95 103 115 125 135 142 148 155 158 161 170 191 214 232 230 227 223 228 225 226 228 234 238 243 237 234 230 232 232 230 227 229 226
297 307 313 308 317 306 101 31 12 342 53 79 82 81 77 74 76 82 98 120 134 141 143 148 158 173 205 238 250 250 242 249 237 237 237 236 232 231 241 242 237 233 228 223 221 226 214 219 219
16 11 334 327 350 360 87 51 5 0 77 81 79 79 78 73 71 72 74 80 98 108 117 134 153 155 268 280 284 285 278 264 255 255 254 240 236 234 239 240 237 229 214 200 192 186 183 203 210
24 15 333 338 5 36 74 67 16 25 74 80 81 84 85 79 69 68 72 72 64 63 71 63 12 298 295 297 290 279 276 270 266 267 265 252 235 227 227 231 228 214 202 195 191 172 178 192 216
299 331 335 4 21 64 78 69 35 31 64 76 78 81 82 78 66 64 69 76 73 61 49 41 291 297 287 285 280 272 278 289 302 284 282 254 224 225 214 218 220 199 191 191 184 173 178 188 204
229 253 294 270 126 75 79 69 39 31 49 59 62 69 74 71 62 60 56 62 74 61 41 21 359 339 337 305 275 274 305 320 329 302 305 285 248 229 217 220 213 199 196 199 186 169 179 190 169
200 220 217 96 105 104 96 74 49 37 39 43 51 50 56 57 47 43 43 41 46 45 36 35 21 349 347 333 296 278 253 274 279 305 306 273 258 245 232 219 214 205 195 195 191 176 169 184 166
188 186 201 163 101 94 111 58 34 37 36 42 46 47 48 54 41 23 27 36 40 41 39 56 36 17 356 345 344 349 352 344 355 335 320 307 284 257 251 240 227 216 203 201 199 187 177 183 191
286 254 207 157 131 144 133 156 288 19 12 21 20 26 29 34 34 7 351 350 355 324 213 91 67 40 13 25 65 63 50 3 335 322 318 315 313 299 276 256 240 229 219 215 211 198 188 171 184
223 53 68 89 119 79 35 106 277 245 271 268 283 304 330 326 331 309 299 295 298 290 277 156 117 71 26 91 110 103 98 211 283 320 351 348 344 341 332 297 254 237 224 220 217 205 200 192 184
106 73 54 51 68 54 330 120 256 231 222 211 228 251 272 293 304 304 297 292 291 285 280 270 252 247 238 194 171 159 164 179 166 19 7 350 333 334 344 340 328 299 262 236 223 215 210 208 200
60 73 27 4 10 274 301 138 251 248 200 184 207 235 251 267 278 283 279 278 276 274 270 263 256 255 248 233 222 207 200 200 200 210 216 248 287 293 311 332 319 313 298 276 242 221 222 214 210
59 120 145 201 237 286 350 286 274 300 117 108 140 250 258 261 262 265 268 269 271 273 270 264 260 262 258 247 242 235 224 215 219 221 218 223 229 245 259 277 290 292 290 290 272 242 232 220 219
72 67 131 127 119 333 312 309 331 55 31 33 13 273 267 268 268 269 271 272 272 274 273 269 266 265 263 257 253 252 243 231 228 229 227 231 236 245 249 256 264 273 275 270 261 248 245 234 226
79 124 79 88 108 318 319 332 323 335 342 354 4 336 301 295 290 284 282 281 278 273 271 270 260 259 263 262 257 255 248 244 240 235 235 235 237 238 249 255 255 257 260 260 254 247 243 239 234
11 48 82 91 124 142 293 299 339 317 334 4 1 336 317 305 297 291 290 289 285 282 278 274 271 267 267 263 258 256 254 249 243 240 241 238 236 230 232 238 245 252 253 244 241 250 249 239 240
62 56 108 109 72 123 190 271 333 22 43 49 355 318 306 297 289 288 291 295 291 285 280 274 269 264 261 260 259 258 258 254 245 242 243 237 235 234 230 231 234 244 248 240 233 242 247 242 240